Simultaneous Nadir Overpasses (SNOs) Predictions

Prediction of SNOs between AQUA and GOES-15 Satellite Orbit:

Table of predicted SNOs for the next 14.0 days since TLE Epoch: 3/16/2024
Index Date Time (AQUA) AQUA Lat,Lon GOES-15 Lat,Lon Distance(km) Time Diff (sec)
1 03/17/2024 09:46:09 0.60, 64.42 -0.07, 61.24 361.52 80
2 03/17/2024 22:06:28 0.41, 59.49 0.08, 61.16 189.53 80
3 03/19/2024 21:50:39 -0.36, 63.37 0.08, 61.16 249.75 80
4 03/20/2024 10:11:07 -0.71, 58.41 -0.08, 61.24 322.00 80
5 03/22/2024 09:55:18 0.12, 62.28 -0.09, 61.24 117.52 80
6 03/22/2024 22:15:37 0.93, 57.36 0.09, 61.17 433.66 80
7 03/24/2024 21:59:48 0.06, 61.22 0.09, 61.17 6.32 80
8 03/26/2024 21:43:57 -0.73, 65.10 0.09, 61.18 445.63 80
9 03/27/2024 10:04:24 -0.35, 60.16 -0.09, 61.26 125.83 80
10 03/29/2024 09:48:33 0.49, 64.03 -0.09, 61.27 313.27 80
11 03/29/2024 22:08:52 0.53, 59.11 0.09, 61.20 238.48 80
